Pipestone, MN

2:57 PM CDT on August 28, 2016 (GMT -0500)
Pipestone Municipal

Weather History for KPQN - April, 2013

Change the Weather History Date:

Thursday, April 4, 2013

  Actual Average Record
Temperature  
Mean Temperature 37 °F -  
Max Temperature 46 °F 47 °F 75 °F (2005)
Min Temperature 28 °F 29 °F 15 °F (2002)
Degree Days  
Heating Degree Days 28    
Moisture  
Dew Point 26 °F    
Average Humidity 61    
Maximum Humidity 86    
Minimum Humidity 40    
Precipitation  
Precipitation 0.00 in - - ()
Sea Level Pressure  
Sea Level Pressure 30.11 in    
Wind  
Wind Speed 12 mph (NNE)    
Max Wind Speed 20 mph    
Max Gust Speed 26 mph    
Visibility 10 miles    
Events      
Averages and records for this station are not official NWS values.
T = Trace of Precipitation, MM = Missing Value Source: NWS Daily Summary

Daily Weather History Graph

Daily Weather History Graph

Search for Another Location

Airport or City:

Trip Planner

Search our weather history database for the weather conditions in past years. The results will help you decide how hot, cold, wet, or windy it might be!

Date:

Astronomy

Apr. 04, 2013 Rise Set
Actual Time 7:00 AM CDT 7:56 PM CDT
Civil Twilight 6:31 AM CDT 8:25 PM CDT
Nautical Twilight 5:56 AM CDT 9:00 PM CDT
Astronomical Twilight 5:20 AM CDT 9:37 PM CDT
Moon 3:39 AM CDT (4/4) 2:04 PM CDT (4/4)
Length of Visible Light 13h 54m
Length of Day
12h 55m
Waning Crescent, 33% of the Moon is Illuminated
Apr 4
Waning Crescent
Apr 10
New
Apr 18
First Quarter
Apr 25
Full
May 2
Last Quarter

Hourly Weather History & Observations

Time (CDT) Temp. Windchill Dew Point Humidity Pressure Visibility Wind Dir Wind Speed Gust Speed Precip Events Conditions
12:13 AM 42.8 °F 35.4 °F 28.4 °F 57% 30.05 in 10.0 mi SW 15.0 mph - N/A   Mostly Cloudy
12:33 AM 42.8 °F 35.1 °F 28.4 °F 57% 30.04 in 10.0 mi SW 16.1 mph - N/A   Mostly Cloudy
12:53 AM 42.8 °F 34.3 °F 28.4 °F 57% 30.05 in 10.0 mi SW 19.6 mph 23.0 mph N/A   Overcast
1:13 AM 42.8 °F 34.8 °F 28.4 °F 57% 30.04 in 10.0 mi SW 17.3 mph 26.5 mph N/A   Overcast
1:33 AM 42.8 °F 35.1 °F 28.4 °F 57% 30.05 in 10.0 mi SW 16.1 mph - N/A   Overcast
1:54 AM 42.8 °F 34.8 °F 28.4 °F 57% 30.04 in 10.0 mi SW 17.3 mph - N/A   Overcast
2:13 AM 42.8 °F 35.1 °F 28.4 °F 57% 30.04 in 10.0 mi SW 16.1 mph - N/A   Overcast
2:33 AM 42.8 °F 35.4 °F 26.6 °F 53% 30.04 in 10.0 mi SW 15.0 mph - N/A   Mostly Cloudy
2:53 AM 42.8 °F 36.2 °F 26.6 °F 53% 30.04 in 10.0 mi SW 12.7 mph - N/A   Mostly Cloudy
3:13 AM 41.0 °F 34.7 °F 28.4 °F 61% 30.03 in 10.0 mi SW 10.4 mph - N/A   Mostly Cloudy
3:33 AM 39.2 °F 32.0 °F 26.6 °F 61% 30.02 in 10.0 mi SW 11.5 mph - N/A   Scattered Clouds
3:54 AM 37.4 °F 30.8 °F 28.4 °F 70% 30.02 in 10.0 mi SW 9.2 mph - N/A   Clear
4:13 AM 37.4 °F 31.4 °F 28.4 °F 70% 30.02 in 10.0 mi SW 8.1 mph - N/A   Clear
4:33 AM 37.4 °F 32.1 °F 28.4 °F 70% 30.02 in 10.0 mi SW 6.9 mph - N/A   Clear
4:53 AM 37.4 °F 33.8 °F 26.6 °F 65% 30.03 in 10.0 mi West 4.6 mph - N/A   Clear
5:13 AM 37.4 °F 34.9 °F 28.4 °F 70% 30.04 in 10.0 mi WNW 3.5 mph - N/A   Clear
5:33 AM 37.4 °F 34.9 °F 28.4 °F 70% 30.04 in 10.0 mi North 3.5 mph - N/A   Mostly Cloudy
5:53 AM 37.4 °F 30.8 °F 28.4 °F 70% 30.05 in 10.0 mi NNE 9.2 mph - N/A   Mostly Cloudy
6:13 AM 35.6 °F 30.7 °F 28.4 °F 75% 30.05 in 10.0 mi NE 5.8 mph - N/A   Mostly Cloudy
6:33 AM 35.6 °F 29.9 °F 26.6 °F 70% 30.06 in 10.0 mi NE 6.9 mph - N/A   Scattered Clouds
6:53 AM 35.6 °F 29.2 °F 26.6 °F 70% 30.06 in 10.0 mi NE 8.1 mph - N/A   Mostly Cloudy
7:13 AM 35.6 °F 29.2 °F 24.8 °F 65% 30.08 in 10.0 mi NE 8.1 mph - N/A   Scattered Clouds
7:33 AM 33.8 °F 26.4 °F 24.8 °F 70% 30.09 in 10.0 mi NE 9.2 mph - N/A   Clear
7:53 AM 33.8 °F 26.4 °F 26.6 °F 75% 30.10 in 10.0 mi NE 9.2 mph - N/A   Scattered Clouds
8:13 AM 33.8 °F 27.0 °F 26.6 °F 75% 30.09 in 10.0 mi NE 8.1 mph - N/A   Scattered Clouds
8:33 AM 35.6 °F 29.9 °F 26.6 °F 70% 30.09 in 10.0 mi NE 6.9 mph - N/A   Clear
8:53 AM 37.4 °F 29.3 °F 28.4 °F 70% 30.09 in 10.0 mi NNE 12.7 mph 16.1 mph N/A   Clear
9:13 AM 37.4 °F 29.3 °F 26.6 °F 65% 30.10 in 10.0 mi NNE 12.7 mph 18.4 mph N/A   Clear
9:33 AM 37.4 °F 29.3 °F 26.6 °F 65% 30.10 in 10.0 mi NNE 12.7 mph 18.4 mph N/A   Clear
9:53 AM 39.2 °F 31.2 °F 26.6 °F 61% 30.10 in 10.0 mi North 13.8 mph 18.4 mph N/A   Clear
10:13 AM 39.2 °F 31.2 °F 24.8 °F 56% 30.11 in 10.0 mi NNE 13.8 mph 18.4 mph N/A   Clear
10:33 AM 39.2 °F 31.2 °F 24.8 °F 56% 30.11 in 10.0 mi North 13.8 mph 17.3 mph N/A   Clear
10:54 AM 41.0 °F 33.5 °F 26.6 °F 57% 30.12 in 10.0 mi NNE 13.8 mph 19.6 mph N/A   Clear
11:33 AM 42.8 °F 35.4 °F 26.6 °F 53% 30.14 in 10.0 mi North 15.0 mph 21.9 mph N/A   Clear
11:53 AM 42.8 °F 36.2 °F 26.6 °F 53% 30.13 in 10.0 mi North 12.7 mph 18.4 mph N/A   Clear
12:13 PM 42.8 °F 37.0 °F 26.6 °F 53% 30.14 in 10.0 mi NNE 10.4 mph 17.3 mph N/A   Clear
12:33 PM 42.8 °F 37.0 °F 26.6 °F 53% 30.14 in 10.0 mi NNE 10.4 mph 18.4 mph N/A   Clear
12:53 PM 44.6 °F 39.2 °F 26.6 °F 49% 30.14 in 10.0 mi NNE 10.4 mph 18.4 mph N/A   Clear
1:13 PM 44.6 °F 39.7 °F 26.6 °F 49% 30.13 in 10.0 mi NE 9.2 mph 18.4 mph N/A   Clear
1:33 PM 46.4 °F 41.5 °F 26.6 °F 46% 30.13 in 10.0 mi NNE 10.4 mph 17.3 mph N/A   Clear
1:53 PM 46.4 °F 40.7 °F 24.8 °F 43% 30.13 in 10.0 mi NE 12.7 mph 19.6 mph N/A   Clear
2:13 PM 46.4 °F 41.5 °F 26.6 °F 46% 30.13 in 10.0 mi NNE 10.4 mph 18.4 mph N/A   Clear
2:33 PM 46.4 °F 41.9 °F 26.6 °F 46% 30.13 in 10.0 mi NNE 9.2 mph 20.7 mph N/A   Clear
2:53 PM 46.4 °F 42.9 °F 28.4 °F 50% 30.12 in 10.0 mi NNE 6.9 mph 19.6 mph N/A   Clear
3:13 PM 46.4 °F 41.9 °F 26.6 °F 46% 30.12 in 10.0 mi North 9.2 mph 17.3 mph N/A   Clear
3:33 PM 46.4 °F 41.9 °F 23.0 °F 40% 30.12 in 10.0 mi NNE 9.2 mph - N/A   Clear
3:53 PM 46.4 °F 41.9 °F 26.6 °F 46% 30.12 in 10.0 mi North 9.2 mph 19.6 mph N/A   Clear
4:13 PM 46.4 °F 40.7 °F 26.6 °F 46% 30.13 in 10.0 mi NE 12.7 mph 17.3 mph N/A   Clear
4:33 PM 46.4 °F 41.1 °F 26.6 °F 46% 30.12 in 10.0 mi North 11.5 mph 17.3 mph N/A   Clear
4:53 PM 46.4 °F 41.1 °F 26.6 °F 46% 30.12 in 10.0 mi NNE 11.5 mph 18.4 mph N/A   Scattered Clouds
5:13 PM 44.6 °F 37.8 °F 26.6 °F 49% 30.13 in 10.0 mi NE 15.0 mph 20.7 mph N/A   Scattered Clouds
5:33 PM 44.6 °F 39.2 °F 26.6 °F 49% 30.13 in 10.0 mi NNE 10.4 mph 18.4 mph N/A   Scattered Clouds
5:53 PM 42.8 °F 36.2 °F 26.6 °F 53% 30.14 in 10.0 mi NE 12.7 mph 17.3 mph N/A   Mostly Cloudy
6:13 PM 42.8 °F 35.8 °F 26.6 °F 53% 30.15 in 10.0 mi NNE 13.8 mph 18.4 mph N/A   Mostly Cloudy
6:33 PM 41.0 °F 33.1 °F 26.6 °F 57% 30.15 in 10.0 mi NNE 15.0 mph 19.6 mph N/A   Scattered Clouds
6:53 PM 39.2 °F 31.6 °F 24.8 °F 56% 30.15 in 10.0 mi NNE 12.7 mph 17.3 mph N/A   Clear
7:13 PM 37.4 °F 30.8 °F 24.8 °F 60% 30.15 in 10.0 mi NNE 9.2 mph - N/A   Clear
7:33 PM 35.6 °F 28.0 °F 24.8 °F 65% 30.15 in 10.0 mi NNE 10.4 mph - N/A   Clear
7:53 PM 35.6 °F 28.6 °F 24.8 °F 65% 30.15 in 10.0 mi NE 9.2 mph - N/A   Clear
8:13 PM 33.8 °F 25.8 °F 24.8 °F 70% 30.16 in 10.0 mi NE 10.4 mph - N/A   Clear
8:33 PM 33.8 °F 25.8 °F 23.0 °F 65% 30.15 in 10.0 mi NE 10.4 mph - N/A   Scattered Clouds
8:53 PM 32.0 °F 25.6 °F 24.8 °F 75% 30.16 in 10.0 mi NE 6.9 mph - N/A   Scattered Clouds
9:13 PM 32.0 °F 24.8 °F 24.8 °F 75% 30.17 in 10.0 mi NNE 8.1 mph - N/A   Scattered Clouds
9:33 PM 30.2 °F 22.6 °F 24.8 °F 80% 30.16 in 10.0 mi NE 8.1 mph - N/A   Mostly Cloudy
9:53 PM 30.2 °F 22.6 °F 24.8 °F 80% 30.17 in 10.0 mi NNE 8.1 mph - N/A   Scattered Clouds
10:13 PM 30.2 °F 25.4 °F 24.8 °F 80% 30.18 in 10.0 mi North 4.6 mph - N/A   Clear
10:33 PM 28.4 °F 22.2 °F 24.8 °F 86% 30.18 in 10.0 mi North 5.8 mph - N/A   Mostly Cloudy
10:53 PM 28.4 °F 21.2 °F 24.8 °F 86% 30.18 in 10.0 mi NNE 6.9 mph - N/A   Mostly Cloudy
11:13 PM 30.2 °F 23.4 °F 24.8 °F 80% 30.18 in 10.0 mi NNE 6.9 mph - N/A   Overcast
11:33 PM 28.4 °F 19.7 °F 21.2 °F 74% 30.18 in 10.0 mi NNE 9.2 mph - N/A   Overcast
11:53 PM 28.4 °F 19.1 °F 21.2 °F 74% 30.18 in 10.0 mi NNE 10.4 mph - N/A   Overcast